When you browse on this site, cookies collect data to enhance your experience and personalize the content and advertising you see.
Visit our Privacy Policy to learn more. By continuing to use the site, you agree to this use of cookies and data.
  • In Hungary
  • List of Countries
  • For 7 days
  • Water Temperature
  • Satellite Maps
  • Weather Map
  • News
  • Weather Widgets
  • user-avatar
    Login

    Hourly Weather Calafat

    Today, 21 March, Thursday

    Time Temperature Precipitation Wind Pressure Humidity
    00:00 +11°C° 0 mm 1 mps 770 mmHg 74%
    01:00 +10°C° 0 mm 2 mps 770 mmHg 74%
    02:00 +10°C° 0 mm 2 mps 770 mmHg 74%
    03:00 +11°C° 0 mm 1 mps 770 mmHg 73%
    04:00 +11°C° 0 mm 1 mps 770 mmHg 73%
    05:00 +11°C° 0 mm 1 mps 770 mmHg 73%
    06:00 +11°C° 0 mm 1 mps 771 mmHg 72%
    07:00 +11°C° 0 mm 1 mps 771 mmHg 72%
    08:00 +11°C° 0 mm 1 mps 771 mmHg 71%
    09:00 +11°C° 0 mm 1 mps 771 mmHg 71%
    10:00 +12°C° 0 mm 1 mps 771 mmHg 70%
    11:00 +12°C° 0 mm 2 mps 771 mmHg 69%
    12:00 +13°C° 0 mm 2 mps 771 mmHg 67%
    13:00 +13°C° 0 mm 2 mps 771 mmHg 65%
    14:00 +14°C° 0 mm 1 mps 770 mmHg 62%
    15:00 +14°C° 0 mm 1 mps 770 mmHg 61%
    16:00 +14°C° 0 mm 1 mps 770 mmHg 60%
    17:00 +14°C° 0 mm 1 mps 769 mmHg 59%
    18:00 +13°C° 0 mm 1 mps 769 mmHg 62%
    19:00 +13°C° 0 mm 1 mps 770 mmHg 66%
    20:00 +12°C° 0 mm 1 mps 770 mmHg 70%
    21:00 +11°C° 0 mm 1 mps 770 mmHg 72%
    22:00 +11°C° 0 mm 1 mps 770 mmHg 74%
    23:00 +9°C° 0 mm 2 mps 770 mmHg 76%

    Tomorrow, 22 March, Friday

    Time Temperature Precipitation Wind Pressure Humidity
    00:00 +10°C° 0 mm 1 mps 770 mmHg 77%
    01:00 +10°C° 0 mm 1 mps 770 mmHg 77%
    02:00 +9°C° 0 mm 1 mps 771 mmHg 78%
    03:00 +9°C° 0 mm 1 mps 770 mmHg 79%
    04:00 +9°C° 0 mm 1 mps 770 mmHg 79%
    05:00 +8°C° 0 mm 1 mps 770 mmHg 80%
    06:00 +9°C° 0 mm 1 mps 770 mmHg 77%
    07:00 +10°C° 0 mm 1 mps 770 mmHg 74%
    08:00 +10°C° 0 mm 1 mps 770 mmHg 72%
    09:00 +12°C° 0 mm 1 mps 770 mmHg 65%
    10:00 +14°C° 0 mm 1 mps 769 mmHg 58%
    11:00 +15°C° 0 mm 1 mps 769 mmHg 51%
    12:00 +16°C° 0 mm 1 mps 768 mmHg 47%
    13:00 +18°C° 0 mm 1 mps 768 mmHg 43%
    14:00 +19°C° 0 mm 1 mps 767 mmHg 40%
    15:00 +19°C° 0 mm 1 mps 767 mmHg 38%
    16:00 +20°C° 0 mm 1 mps 766 mmHg 37%
    17:00 +20°C° 0 mm 1 mps 766 mmHg 36%
    18:00 +18°C° 0 mm 1 mps 766 mmHg 40%
    19:00 +16°C° 0 mm 1 mps 767 mmHg 45%
    20:00 +15°C° 0 mm 2 mps 767 mmHg 49%
    21:00 +14°C° 0 mm 1 mps 767 mmHg 51%
    22:00 +13°C° 0 mm 1 mps 767 mmHg 53%
    23:00 +13°C° 0 mm 1 mps 767 mmHg 54%

    Day after tomorrow, 23 March, Saturday

    Time Temperature Precipitation Wind Pressure Humidity
    00:00 +12°C° 0 mm 1 mps 767 mmHg 55%
    01:00 +12°C° 0 mm 1 mps 767 mmHg 56%
    02:00 +12°C° 0 mm 1 mps 767 mmHg 57%
    03:00 +11°C° 0 mm 1 mps 767 mmHg 59%
    04:00 +11°C° 0 mm 1 mps 767 mmHg 61%
    05:00 +11°C° 0 mm 1 mps 767 mmHg 62%
    06:00 +11°C° 0 mm 1 mps 767 mmHg 62%
    07:00 +11°C° 0 mm 0 mps 767 mmHg 61%
    08:00 +11°C° 0 mm 0 mps 767 mmHg 60%
    09:00 +13°C° 0 mm 0 mps 767 mmHg 56%
    10:00 +15°C° 0 mm 1 mps 767 mmHg 51%
    11:00 +18°C° 0 mm 1 mps 766 mmHg 47%
    12:00 +19°C° 0 mm 1 mps 766 mmHg 45%
    13:00 +20°C° 0 mm 1 mps 765 mmHg 42%
    14:00 +21°C° 0 mm 1 mps 765 mmHg 40%
    15:00 +21°C° 0 mm 1 mps 765 mmHg 39%
    16:00 +21°C° 0 mm 1 mps 764 mmHg 39%
    17:00 +21°C° 0 mm 1 mps 764 mmHg 38%
    18:00 +19°C° 0 mm 1 mps 764 mmHg 42%
    19:00 +18°C° 0 mm 1 mps 764 mmHg 46%
    20:00 +16°C° 0 mm 1 mps 765 mmHg 50%
    21:00 +15°C° 0 mm 1 mps 765 mmHg 52%
    22:00 +15°C° 0 mm 1 mps 765 mmHg 54%
    23:00 +14°C° 0 mm 1 mps 765 mmHg 56%

    24 March, Sunday

    Time Temperature Precipitation Wind Pressure Humidity
    00:00 +14°C° 0 mm 1 mps 765 mmHg 58%
    01:00 +13°C° 0 mm 1 mps 765 mmHg 59%
    02:00 +12°C° 0 mm 0 mps 765 mmHg 60%
    03:00 +11°C° 0 mm 0 mps 765 mmHg 62%
    04:00 +11°C° 0 mm 0 mps 765 mmHg 63%
    05:00 +11°C° 0 mm 0 mps 765 mmHg 64%
    06:00 +11°C° 0 mm 0 mps 765 mmHg 63%
    07:00 +12°C° 0 mm 0 mps 765 mmHg 61%
    08:00 +12°C° 0 mm 0 mps 766 mmHg 59%
    09:00 +14°C° 0 mm 0 mps 765 mmHg 54%
    10:00 +18°C° 0 mm 1 mps 765 mmHg 49%
    11:00 +20°C° 0 mm 1 mps 765 mmHg 44%
    12:00 +20°C° 0 mm 1 mps 764 mmHg 42%
    13:00 +21°C° 0 mm 1 mps 764 mmHg 39%
    14:00 +22°C° 0 mm 1 mps 763 mmHg 36%
    15:00 +22°C° 0 mm 1 mps 763 mmHg 36%
    16:00 +22°C° 0 mm 1 mps 762 mmHg 36%
    17:00 +22°C° 0 mm 1 mps 762 mmHg 35%
    18:00 +21°C° 0 mm 1 mps 762 mmHg 39%
    19:00 +19°C° 0 mm 1 mps 762 mmHg 44%
    20:00 +18°C° 0 mm 1 mps 762 mmHg 48%
    21:00 +16°C° 0 mm 1 mps 762 mmHg 50%
    22:00 +16°C° 0 mm 1 mps 762 mmHg 53%
    23:00 +15°C° 0 mm 1 mps 762 mmHg 55%

    25 March, Monday

    Time Temperature Precipitation Wind Pressure Humidity
    00:00 +15°C° 0 mm 1 mps 761 mmHg 57%
    01:00 +14°C° 0 mm 1 mps 761 mmHg 59%
    02:00 +14°C° 0 mm 1 mps 761 mmHg 61%
    03:00 +13°C° 0 mm 1 mps 761 mmHg 63%
    04:00 +13°C° 0 mm 1 mps 760 mmHg 64%
    05:00 +12°C° 0 mm 1 mps 760 mmHg 66%
    06:00 +13°C° 0 mm 1 mps 760 mmHg 64%
    07:00 +13°C° 0 mm 1 mps 760 mmHg 63%
    08:00 +14°C° 0 mm 1 mps 760 mmHg 61%
    09:00 +16°C° 0 mm 1 mps 760 mmHg 55%
    10:00 +18°C° 0 mm 2 mps 759 mmHg 48%
    11:00 +20°C° 0 mm 2 mps 759 mmHg 42%
    12:00 +21°C° 0 mm 3 mps 758 mmHg 39%
    13:00 +22°C° 0 mm 4 mps 758 mmHg 36%
    14:00 +23°C° 0 mm 4 mps 757 mmHg 33%
    15:00 +23°C° 0 mm 5 mps 757 mmHg 34%
    16:00 +22°C° 0 mm 5 mps 756 mmHg 35%
    17:00 +22°C° 0 mm 6 mps 756 mmHg 36%
    18:00 +20°C° 0 mm 5 mps 756 mmHg 41%
    19:00 +19°C° 0 mm 4 mps 756 mmHg 46%
    20:00 +17°C° 0 mm 4 mps 756 mmHg 51%
    21:00 +15°C° 0 mm 4 mps 756 mmHg 54%
    22:00 +15°C° 0 mm 4 mps 756 mmHg 56%
    23:00 +14°C° 0 mm 4 mps 757 mmHg 58%

    26 March, Tuesday

    Time Temperature Precipitation Wind Pressure Humidity
    00:00 +14°C° 0 mm 5 mps 757 mmHg 56%
    01:00 +13°C° 0 mm 5 mps 757 mmHg 53%
    02:00 +13°C° 0 mm 6 mps 757 mmHg 50%
    03:00 +11°C° 0 mm 6 mps 757 mmHg 51%
    04:00 +10°C° 0 mm 6 mps 758 mmHg 52%
    05:00 +10°C° 0 mm 6 mps 758 mmHg 54%
    06:00 +10°C° 0 mm 7 mps 758 mmHg 51%
    07:00 +9°C° 0 mm 8 mps 758 mmHg 48%
    08:00 +8°C° 0 mm 9 mps 759 mmHg 46%
    09:00 +10°C° 0 mm 9 mps 759 mmHg 42%
    10:00 +11°C° 0 mm 9 mps 759 mmHg 39%
    11:00 +11°C° 0 mm 10 mps 759 mmHg 36%
    12:00 +12°C° 0 mm 10 mps 759 mmHg 34%
    13:00 +12°C° 0 mm 10 mps 758 mmHg 32%
    14:00 +12°C° 0 mm 10 mps 758 mmHg 30%
    15:00 +11°C° 0 mm 10 mps 758 mmHg 32%
    16:00 +11°C° 0 mm 10 mps 758 mmHg 33%
    17:00 +9°C° 0 mm 10 mps 758 mmHg 34%
    18:00 +8°C° 0 mm 9 mps 759 mmHg 35%
    19:00 +6°C° 0 mm 7 mps 760 mmHg 36%
    20:00 +5°C° 0 mm 6 mps 761 mmHg 38%
    21:00 +4°C° 0 mm 6 mps 762 mmHg 38%
    22:00 +3°C° 0 mm 6 mps 763 mmHg 39%
    23:00 +3°C° 0 mm 7 mps 763 mmHg 39%
    Show more